Time,TemperatureF,DewpointF,PressureIn,WindDirection,WindDirectionDegrees,WindSpeedMPH,WindSpeedGustMPH,Humidity,HourlyPrecipIn,Conditions,Clouds,dailyrainin,SoftwareType,DateUTC
2013-04-30 00:01:00,53.0,22.0,-100.00,West,275,23.0,35.0,30,0.00,,,-99.99,,2013-04-30 06:01:00,
2013-04-30 00:11:00,53.0,23.0,-100.00,West,278,23.0,33.0,31,0.00,,,-99.99,,2013-04-30 06:11:00,
2013-04-30 00:21:00,52.0,23.0,-100.00,West,278,23.0,36.0,31,0.00,,,-99.99,,2013-04-30 06:21:00,
2013-04-30 00:31:00,53.0,22.0,-100.00,West,277,22.0,35.0,31,0.00,,,-99.99,,2013-04-30 06:31:00,
2013-04-30 00:41:00,52.0,23.0,-100.00,West,275,21.0,30.0,32,0.00,,,-99.99,,2013-04-30 06:41:00,
2013-04-30 00:52:00,51.0,22.0,-100.00,West,280,22.0,34.0,32,0.00,,,-99.99,,2013-04-30 06:52:00,
2013-04-30 01:01:00,52.0,23.0,-100.00,West,278,18.0,29.0,32,0.00,,,-99.99,,2013-04-30 07:01:00,
2013-04-30 01:11:00,52.0,23.0,-100.00,West,277,19.0,30.0,32,0.00,,,-99.99,,2013-04-30 07:11:00,
2013-04-30 01:21:00,52.0,23.0,-100.00,West,275,19.0,31.0,32,0.00,,,-99.99,,2013-04-30 07:21:00,
2013-04-30 01:31:00,52.0,23.0,-100.00,West,280,18.0,28.0,32,0.00,,,-99.99,,2013-04-30 07:31:00,
2013-04-30 01:41:00,52.0,23.0,-100.00,West,281,16.0,26.0,33,0.00,,,-99.99,,2013-04-30 07:41:00,
2013-04-30 01:52:00,51.0,24.0,-100.00,West,281,9.0,16.0,34,0.00,,,-99.99,,2013-04-30 07:52:00,
2013-04-30 02:02:00,52.0,23.0,-100.00,West,261,9.0,16.0,33,0.00,,,-99.99,,2013-04-30 08:02:00,
2013-04-30 02:11:00,51.0,23.0,-100.00,West,271,11.0,16.0,33,0.00,,,-99.99,,2013-04-30 08:11:00,
2013-04-30 02:21:00,51.0,23.0,-100.00,West,270,6.0,11.0,33,0.00,,,-99.99,,2013-04-30 08:21:00,
2013-04-30 02:32:00,50.0,24.0,-100.00,NW,312,4.0,8.0,36,0.00,,,-99.99,,2013-04-30 08:32:00,
2013-04-30 02:42:00,49.0,24.0,-100.00,NNE,17,4.0,11.0,36,0.00,,,-99.99,,2013-04-30 08:42:00,
2013-04-30 02:52:00,50.0,23.0,-100.00,NNE,28,6.0,13.0,35,0.00,,,-99.99,,2013-04-30 08:52:00,
2013-04-30 03:01:00,50.0,24.0,-100.00,East,96,4.0,12.0,36,0.00,,,-99.99,,2013-04-30 09:01:00,
2013-04-30 03:11:00,50.0,25.0,-100.00,East,96,5.0,11.0,38,0.00,,,-99.99,,2013-04-30 09:11:00,
2013-04-30 03:22:00,50.0,28.0,-100.00,East,96,5.0,10.0,43,0.00,,,-99.99,,2013-04-30 09:22:00,
2013-04-30 03:33:00,49.0,31.0,-100.00,East,96,6.0,14.0,50,0.00,,,-99.99,,2013-04-30 09:33:00,
2013-04-30 03:43:00,47.0,32.0,-100.00,East,96,7.0,15.0,56,0.00,,,-99.99,,2013-04-30 09:43:00,
2013-04-30 03:52:00,46.0,33.0,-100.00,East,96,10.0,16.0,59,0.00,,,-99.99,,2013-04-30 09:52:00,
2013-04-30 04:03:00,46.0,33.0,-100.00,East,96,11.0,16.0,61,0.00,,,-99.99,,2013-04-30 10:03:00,
2013-04-30 04:11:00,46.0,33.0,-100.00,East,96,8.0,16.0,60,0.00,,,-99.99,,2013-04-30 10:11:00,
2013-04-30 04:22:00,44.0,33.0,-100.00,East,96,6.0,9.0,64,0.00,,,-99.99,,2013-04-30 10:22:00,
2013-04-30 04:32:00,46.0,32.0,-100.00,NE,37,4.0,11.0,59,0.00,,,-99.99,,2013-04-30 10:32:00,
2013-04-30 04:41:00,45.0,32.0,-100.00,North,353,4.0,9.0,62,0.00,,,-99.99,,2013-04-30 10:41:00,
2013-04-30 04:52:00,44.0,33.0,-100.00,North,356,9.0,12.0,65,0.00,,,-99.99,,2013-04-30 10:52:00,
2013-04-30 05:02:00,44.0,33.0,-100.00,North,7,11.0,16.0,65,0.00,,,-99.99,,2013-04-30 11:02:00,
2013-04-30 05:11:00,43.0,33.0,-100.00,North,11,10.0,16.0,66,0.00,,,-99.99,,2013-04-30 11:11:00,
2013-04-30 05:21:00,44.0,32.0,-100.00,NE,42,4.0,12.0,64,0.00,,,-99.99,,2013-04-30 11:21:00,
2013-04-30 05:31:00,46.0,31.0,-100.00,North,6,9.0,15.0,56,0.00,,,-99.99,,2013-04-30 11:31:00,
2013-04-30 05:42:00,46.0,31.0,-100.00,North,11,6.0,15.0,57,0.00,,,-99.99,,2013-04-30 11:42:00,
2013-04-30 05:51:00,45.0,31.0,-100.00,NW,316,7.0,12.0,58,0.00,,,-99.99,,2013-04-30 11:51:00,
2013-04-30 06:01:00,43.0,32.0,-100.00,NW,304,9.0,12.0,64,0.00,,,-99.99,,2013-04-30 12:01:00,
2013-04-30 06:11:00,43.0,32.0,-100.00,NW,309,10.0,12.0,64,0.00,,,-99.99,,2013-04-30 12:11:00,
2013-04-30 06:21:00,42.0,32.0,-100.00,NW,318,7.0,10.0,66,0.00,,,-99.99,,2013-04-30 12:21:00,
2013-04-30 06:31:00,41.0,31.0,-100.00,NW,325,5.0,6.0,68,0.00,,,-99.99,,2013-04-30 12:31:00,
2013-04-30 06:41:00,41.0,31.0,-100.00,NNW,332,5.0,7.0,69,0.00,,,-99.99,,2013-04-30 12:41:00,
2013-04-30 06:51:00,44.0,31.0,-100.00,NNW,337,5.0,9.0,61,0.00,,,-99.99,,2013-04-30 12:51:00,
2013-04-30 07:01:00,44.0,31.0,-100.00,NE,38,4.0,8.0,61,0.00,,,-99.99,,2013-04-30 13:01:00,
2013-04-30 07:11:00,44.0,31.0,-100.00,SE,143,2.0,4.0,60,0.00,,,-99.99,,2013-04-30 13:11:00,
2013-04-30 07:21:00,45.0,30.0,-100.00,SSE,160,4.0,9.0,55,0.00,,,-99.99,,2013-04-30 13:21:00,
2013-04-30 07:31:00,45.0,29.0,-100.00,SSE,167,3.0,6.0,54,0.00,,,-99.99,,2013-04-30 13:31:00,
2013-04-30 07:41:00,45.0,29.0,-100.00,South,189,4.0,11.0,52,0.00,,,-99.99,,2013-04-30 13:41:00,
2013-04-30 07:51:00,45.0,29.0,-100.00,West,272,4.0,7.0,52,0.00,,,-99.99,,2013-04-30 13:51:00,
2013-04-30 08:02:00,46.0,30.0,-100.00,NNW,340,6.0,10.0,53,0.00,,,-99.99,,2013-04-30 14:02:00,
2013-04-30 08:11:00,46.0,29.0,-100.00,North,360,10.0,17.0,53,0.00,,,-99.99,,2013-04-30 14:11:00,
2013-04-30 08:21:00,46.0,29.0,-100.00,NNW,343,7.0,11.0,52,0.00,,,-99.99,,2013-04-30 14:21:00,
2013-04-30 08:31:00,46.0,29.0,-100.00,WNW,291,6.0,11.0,51,0.00,,,-99.99,,2013-04-30 14:31:00,
2013-04-30 08:41:00,44.0,31.0,-100.00,SSW,193,4.0,9.0,59,0.00,,,-99.99,,2013-04-30 14:41:00,
2013-04-30 08:52:00,45.0,29.0,-100.00,ESE,102,4.0,7.0,53,0.00,,,-99.99,,2013-04-30 14:52:00,
2013-04-30 09:01:00,45.0,31.0,-100.00,ESE,102,4.0,9.0,58,0.00,,,-99.99,,2013-04-30 15:01:00,
2013-04-30 09:11:00,45.0,29.0,-100.00,ESE,102,4.0,9.0,54,0.00,,,-99.99,,2013-04-30 15:11:00,
2013-04-30 09:21:00,44.0,31.0,-100.00,ESE,102,10.0,15.0,61,0.00,,,-99.99,,2013-04-30 15:21:00,
2013-04-30 09:32:00,43.0,31.0,-100.00,ESE,102,14.0,18.0,63,0.00,,,-99.99,,2013-04-30 15:32:00,
2013-04-30 09:42:00,43.0,31.0,-100.00,ESE,102,15.0,19.0,62,0.00,,,-99.99,,2013-04-30 15:42:00,
2013-04-30 09:52:00,44.0,32.0,-100.00,ESE,102,15.0,18.0,63,0.00,,,-99.99,,2013-04-30 15:52:00,
2013-04-30 10:02:00,45.0,33.0,-100.00,ESE,102,17.0,21.0,61,0.00,,,-99.99,,2013-04-30 16:02:00,
2013-04-30 10:12:00,45.0,32.0,-100.00,ESE,102,18.0,24.0,59,0.00,,,-99.99,,2013-04-30 16:12:00,
2013-04-30 10:22:00,44.0,32.0,-100.00,ESE,102,20.0,26.0,64,0.00,,,-99.99,,2013-04-30 16:22:00,
2013-04-30 10:33:00,43.0,32.0,-100.00,ESE,102,19.0,24.0,65,0.00,,,-99.99,,2013-04-30 16:33:00,
2013-04-30 10:42:00,44.0,32.0,-100.00,ESE,102,16.0,22.0,62,0.00,,,-99.99,,2013-04-30 16:42:00,
2013-04-30 10:52:00,44.0,32.0,-100.00,ESE,102,17.0,24.0,63,0.00,,,-99.99,,2013-04-30 16:52:00,
2013-04-30 11:02:00,43.0,32.0,-100.00,ESE,102,19.0,23.0,64,0.00,,,-99.99,,2013-04-30 17:02:00,
2013-04-30 11:12:00,41.0,32.0,-100.00,ESE,102,24.0,30.0,68,0.00,,,-99.99,,2013-04-30 17:12:00,
2013-04-30 11:22:00,42.0,32.0,-100.00,ESE,102,26.0,30.0,67,0.00,,,-99.99,,2013-04-30 17:22:00,
2013-04-30 11:32:00,43.0,32.0,-100.00,ESE,102,24.0,31.0,64,0.00,,,-99.99,,2013-04-30 17:32:00,
2013-04-30 11:42:00,45.0,32.0,-100.00,ESE,102,22.0,29.0,60,0.00,,,-99.99,,2013-04-30 17:42:00,
2013-04-30 11:52:00,44.0,32.0,-100.00,ESE,102,21.0,26.0,61,0.00,,,-99.99,,2013-04-30 17:52:00,
2013-04-30 12:01:00,46.0,32.0,-100.00,ESE,102,15.0,20.0,58,0.00,,,-99.99,,2013-04-30 18:01:00,
2013-04-30 12:11:00,46.0,30.0,-100.00,ESE,102,13.0,21.0,53,0.00,,,-99.99,,2013-04-30 18:11:00,
2013-04-30 12:22:00,47.0,32.0,-100.00,ESE,102,9.0,19.0,55,0.00,,,-99.99,,2013-04-30 18:22:00,
2013-04-30 12:32:00,44.0,32.0,-100.00,ESE,102,22.0,34.0,62,0.00,,,-99.99,,2013-04-30 18:32:00,
2013-04-30 12:41:00,46.0,32.0,-100.00,ESE,102,21.0,30.0,57,0.00,,,-99.99,,2013-04-30 18:41:00,
2013-04-30 12:51:00,45.0,32.0,-100.00,ESE,102,18.0,26.0,60,0.00,,,-99.99,,2013-04-30 18:51:00,
2013-04-30 13:01:00,44.0,32.0,-100.00,ESE,102,17.0,24.0,62,0.00,,,-99.99,,2013-04-30 19:01:00,
2013-04-30 13:11:00,44.0,31.0,-100.00,ESE,102,14.0,21.0,60,0.00,,,-99.99,,2013-04-30 19:11:00,
2013-04-30 13:21:00,44.0,31.0,-100.00,East,86,8.0,15.0,58,0.00,,,-99.99,,2013-04-30 19:21:00,
2013-04-30 13:32:00,44.0,31.0,-100.00,NE,51,9.0,16.0,59,0.00,,,-99.99,,2013-04-30 19:32:00,
2013-04-30 13:42:00,44.0,30.0,-100.00,NE,54,13.0,21.0,57,0.00,,,-99.99,,2013-04-30 19:42:00,
2013-04-30 13:52:00,43.0,32.0,-100.00,NE,35,14.0,19.0,63,0.00,,,-99.99,,2013-04-30 19:52:00,
2013-04-30 14:02:00,44.0,32.0,-100.00,NNE,27,12.0,18.0,63,0.00,,,-99.99,,2013-04-30 20:02:00,
2013-04-30 14:11:00,43.0,32.0,-100.00,NE,38,12.0,20.0,65,0.00,,,-99.99,,2013-04-30 20:11:00,
2013-04-30 14:21:00,43.0,31.0,-100.00,NNE,28,11.0,17.0,63,0.00,,,-99.99,,2013-04-30 20:21:00,
2013-04-30 14:32:00,43.0,31.0,-100.00,NE,49,9.0,13.0,62,0.00,,,-99.99,,2013-04-30 20:32:00,
2013-04-30 14:42:00,43.0,31.0,-100.00,ENE,73,6.0,11.0,62,0.00,,,-99.99,,2013-04-30 20:42:00,
2013-04-30 14:52:00,44.0,32.0,-100.00,East,80,9.0,15.0,65,0.00,,,-99.99,,2013-04-30 20:52:00,
2013-04-30 15:01:00,43.0,32.0,-100.00,East,92,10.0,17.0,66,0.00,,,-99.99,,2013-04-30 21:01:00,
2013-04-30 15:11:00,43.0,33.0,-100.00,East,92,7.0,13.0,67,0.00,,,-99.99,,2013-04-30 21:11:00,
2013-04-30 15:22:00,43.0,32.0,-100.00,East,92,6.0,17.0,66,0.00,,,-99.99,,2013-04-30 21:22:00,
2013-04-30 15:32:00,43.0,32.0,-100.00,East,92,9.0,16.0,64,0.00,,,-99.99,,2013-04-30 21:32:00,
2013-04-30 15:42:00,43.0,32.0,-100.00,East,92,9.0,16.0,65,0.00,,,-99.99,,2013-04-30 21:42:00,
2013-04-30 15:52:00,43.0,32.0,-100.00,East,92,7.0,15.0,66,0.00,,,-99.99,,2013-04-30 21:52:00,
2013-04-30 16:02:00,42.0,32.0,-100.00,East,92,9.0,17.0,68,0.00,,,-99.99,,2013-04-30 22:02:00,
2013-04-30 16:12:00,41.0,32.0,-100.00,East,92,9.0,15.0,69,0.00,,,-99.99,,2013-04-30 22:12:00,
2013-04-30 16:22:00,40.0,32.0,-100.00,East,92,9.0,14.0,74,0.06,,,-99.99,,2013-04-30 22:22:00,
2013-04-30 16:32:00,38.0,34.0,-100.00,East,92,11.0,21.0,85,0.01,,,-99.99,,2013-04-30 22:32:00,
2013-04-30 16:41:00,36.0,33.0,-100.00,East,92,14.0,21.0,89,0.03,,,-99.99,,2013-04-30 22:41:00,
2013-04-30 16:52:00,35.0,32.0,-100.00,NNE,25,16.0,24.0,91,0.07,,,-99.99,,2013-04-30 22:52:00,
2013-04-30 17:02:00,35.0,33.0,-100.00,NW,311,17.0,24.0,94,0.03,,,-99.99,,2013-04-30 23:02:00,
2013-04-30 17:12:00,34.0,33.0,-100.00,WNW,301,17.0,24.0,97,0.01,,,-99.99,,2013-04-30 23:12:00,
2013-04-30 17:21:00,34.0,33.0,-100.00,WNW,292,17.0,25.0,96,0.03,,,-99.99,,2013-04-30 23:21:00,
2013-04-30 17:32:00,33.0,32.0,-100.00,WNW,294,14.0,18.0,97,0.01,,,-99.99,,2013-04-30 23:32:00,
2013-04-30 17:42:00,33.0,33.0,-100.00,NW,308,16.0,21.0,97,0.04,,,-99.99,,2013-04-30 23:42:00,
2013-04-30 17:52:00,34.0,33.0,-100.00,WNW,284,11.0,15.0,97,0.07,,,-99.99,,2013-04-30 23:52:00,
2013-04-30 18:02:00,34.0,33.0,-100.00,WNW,289,11.0,15.0,95,0.01,,,-99.99,,2013-05-01 00:02:00,
2013-04-30 18:11:00,35.0,33.0,-100.00,WNW,284,9.0,18.0,92,0.01,,,-99.99,,2013-05-01 00:11:00,
2013-04-30 18:21:00,34.0,33.0,-100.00,WSW,243,16.0,21.0,94,0.06,,,-99.99,,2013-05-01 00:21:00,
2013-04-30 18:32:00,34.0,33.0,-100.00,SW,224,12.0,17.0,96,0.03,,,-99.99,,2013-05-01 00:32:00,
2013-04-30 18:42:00,34.0,33.0,-100.00,SW,215,11.0,15.0,95,0.06,,,-99.99,,2013-05-01 00:42:00,
2013-04-30 18:51:00,33.0,32.0,-100.00,SSW,199,8.0,12.0,96,0.01,,,-99.99,,2013-05-01 00:51:00,
2013-04-30 19:01:00,33.0,33.0,-100.00,South,179,6.0,7.0,97,0.00,,,-99.99,,2013-05-01 01:01:00,
2013-04-30 19:11:00,33.0,33.0,-100.00,SSE,165,3.0,6.0,98,0.00,,,-99.99,,2013-05-01 01:11:00,
2013-04-30 19:21:00,34.0,33.0,-100.00,South,171,7.0,11.0,98,0.01,,,-99.99,,2013-05-01 01:21:00,
2013-04-30 19:31:00,34.0,33.0,-100.00,South,188,9.0,12.0,98,0.00,,,-99.99,,2013-05-01 01:31:00,
2013-04-30 19:41:00,34.0,33.0,-100.00,South,181,10.0,14.0,98,0.00,,,-99.99,,2013-05-01 01:41:00,
2013-04-30 19:52:00,35.0,34.0,-100.00,South,175,6.0,11.0,97,0.00,,,-99.99,,2013-05-01 01:52:00,
2013-04-30 20:02:00,35.0,34.0,-100.00,South,182,9.0,12.0,96,0.00,,,-99.99,,2013-05-01 02:02:00,
2013-04-30 20:11:00,34.0,33.0,-100.00,South,185,11.0,14.0,96,0.00,,,-99.99,,2013-05-01 02:11:00,
2013-04-30 20:21:00,34.0,33.0,-100.00,South,182,12.0,16.0,97,0.00,,,-99.99,,2013-05-01 02:21:00,
2013-04-30 20:32:00,33.0,33.0,-100.00,South,184,11.0,15.0,97,0.00,,,-99.99,,2013-05-01 02:32:00,
2013-04-30 20:42:00,33.0,32.0,-100.00,South,172,12.0,17.0,96,0.00,,,-99.99,,2013-05-01 02:42:00,
2013-04-30 20:51:00,34.0,33.0,-100.00,SSW,193,11.0,16.0,96,0.00,,,-99.99,,2013-05-01 02:51:00,
2013-04-30 21:01:00,33.0,33.0,-100.00,SSW,192,14.0,21.0,97,0.00,,,-99.99,,2013-05-01 03:01:00,
2013-04-30 21:11:00,33.0,32.0,-100.00,South,179,16.0,21.0,98,0.00,,,-99.99,,2013-05-01 03:11:00,
2013-04-30 21:21:00,33.0,32.0,-100.00,South,184,17.0,21.0,98,0.00,,,-99.99,,2013-05-01 03:21:00,
2013-04-30 21:33:00,33.0,32.0,-100.00,South,182,15.0,20.0,97,0.00,,,-99.99,,2013-05-01 03:33:00,
2013-04-30 21:43:00,33.0,32.0,-100.00,South,182,10.0,13.0,97,0.00,,,-99.99,,2013-05-01 03:43:00,
2013-04-30 21:52:00,33.0,32.0,-100.00,South,186,9.0,11.0,97,0.00,,,-99.99,,2013-05-01 03:52:00,
2013-04-30 22:03:00,33.0,32.0,-100.00,South,174,8.0,11.0,98,0.00,,,-99.99,,2013-05-01 04:03:00,
2013-04-30 22:12:00,33.0,32.0,-100.00,South,185,7.0,11.0,98,0.00,,,-99.99,,2013-05-01 04:12:00,
2013-04-30 22:22:00,33.0,32.0,-100.00,SSW,192,7.0,9.0,98,0.00,,,-99.99,,2013-05-01 04:22:00,
2013-04-30 22:32:00,33.0,33.0,-100.00,SSW,205,7.0,10.0,98,0.00,,,-99.99,,2013-05-01 04:32:00,
2013-04-30 22:42:00,33.0,32.0,-100.00,SSW,199,8.0,12.0,98,0.00,,,-99.99,,2013-05-01 04:42:00,
2013-04-30 22:52:00,33.0,33.0,-100.00,SE,137,4.0,6.0,97,0.00,,,-99.99,,2013-05-01 04:52:00,
2013-04-30 23:02:00,33.0,33.0,-100.00,SE,145,4.0,7.0,97,0.00,,,-99.99,,2013-05-01 05:02:00,
2013-04-30 23:11:00,33.0,33.0,-100.00,ENE,76,6.0,10.0,97,0.00,,,-99.99,,2013-05-01 05:11:00,
2013-04-30 23:21:00,31.0,30.0,-100.00,ENE,71,10.0,16.0,95,0.00,,,-99.99,,2013-05-01 05:21:00,
2013-04-30 23:32:00,30.0,29.0,-100.00,ENE,75,12.0,16.0,95,0.00,,,-99.99,,2013-05-01 05:32:00,
2013-04-30 23:41:00,30.0,29.0,-100.00,ENE,61,10.0,14.0,95,0.00,,,-99.99,,2013-05-01 05:41:00,
2013-04-30 23:52:00,29.0,27.0,-100.00,NE,49,12.0,18.0,95,0.03,,,-99.99,,2013-05-01 05:52:00,